This is the latest recevied weather packets stored in our database for station/object VE3MNX. If no packets are shown the sender has not sent any weather packets the latest 10 day(s).
| Time | Temp. | Humidity | Pressure | Rain* | Wind** | Luminosity | Snow |
|---|---|---|---|---|---|---|---|
| 1778209697 | 10° C | 61% | 1010.8 hPa | 0 mm | - | - | - |
| 1778208799 | 9.44° C | 64% | 1010.5 hPa | 0 mm | - | - | - |
| 1778207897 | 9.44° C | 59% | 1010.8 hPa | 0 mm | - | - | - |
| 1778206999 | 9.44° C | 62% | 1010.8 hPa | 0 mm | - | - | - |
| 1778206099 | 9.44° C | 56% | 1010.5 hPa | 0 mm | - | - | - |
| 1778205199 | 9.44° C | 57% | 1010.5 hPa | 0 mm | - | - | - |
| 1778204297 | 9.44° C | 59% | 1010.5 hPa | 0 mm | - | - | - |
| 1778203400 | 9.44° C | 60% | 1010.5 hPa | 0 mm | - | - | - |
| 1778202497 | 9.44° C | 61% | 1009.8 hPa | 0 mm | - | - | - |
| 1778201598 | 10° C | 58% | 1010.2 hPa | 0 mm | - | - | - |
| 1778200697 | 10° C | 57% | 1010.2 hPa | 0 mm | - | - | - |
| 1778199867 | 10.56° C | 57% | 1009.8 hPa | 0 mm | - | - | - |
| 1778198967 | 10.56° C | 57% | 1009.8 hPa | 0 mm | - | - | - |
| 1778197997 | 11.67° C | 55% | 1009.8 hPa | 0 mm | - | - | - |
| 1778197096 | 11.67° C | 53% | 1009.5 hPa | 0 mm | - | - | - |
| 1778196199 | 11.67° C | 51% | 1009.8 hPa | 0 mm | - | - | - |
| 1778195297 | 12.22° C | 51% | 1009.8 hPa | 0 mm | - | - | - |
| 1778194399 | 12.22° C | 46% | 1009.8 hPa | 0 mm | - | - | - |
| 1778193497 | 12.78° C | 45% | 1009.8 hPa | 0 mm | - | - | - |
| 1778192598 | 12.78° C | 45% | 1009.5 hPa | 0 mm | - | - | - |
| 1778191697 | 12.78° C | 45% | 1009.8 hPa | 0 mm | - | - | - |
| 1778190800 | 12.22° C | 49% | 1009.5 hPa | 0 mm | - | - | - |
| 1778189897 | 12.78° C | 45% | 1009.5 hPa | 0 mm | - | - | - |
| 1778188997 | 12.78° C | 45% | 1009.1 hPa | 0 mm | - | - | - |
| 1778188097 | 13.33° C | 49% | 1009.5 hPa | 0 mm | - | - | - |
* Rain latest hour (hover to see other rain measurements)
** Current wind speed in m/s (hover to see current wind gust speed)